Weather Roundup
Issued by NWS Chicago, IL

Home | Current Version | Previous Version | Graphics & Text | Print | Product List | Glossary On
Versions: 1 2 3 4 5 6 7 8 9 10 11 12 13 14 15 16 17 18 19 20 21 22 23 24 25 26 27 28 29 30 31 32 33 34 35 36 37 38 39 40 41 42 43 44 45 46 47 48 49 50
000
NZUS59 KLOT 262209
HRRLOT

CHICAGO AREA WEATHER ROUNDUP
NATIONAL WEATHER SERVICE CHICAGO/ROMEOVILLE IL
500 PM CDT WED APR 26 2017

NOTE: "FAIR" INDICATES FEW OR NO CLOUDS BELOW 12,000 FEET WITH NO
SIGNIFICANT WEATHER AND/OR OBSTRUCTIONS TO VISIBILITY.

* THESE STATIONS ARE NOT UNDER NWS QUALITY CONTROL. THEY ALSO MAY NOT
  REPORT WEATHER SUCH AS PRECIPITATION OR FOG.

ILZ005-006-012>014-019>023-262300-
NORTHEAST ILLINOIS

CITY           SKY/WX    TMP DP  RH WIND       PRES   REMARKS
OHARE          CLOUDY    72  56  57 SW12      29.48R
MIDWAY         CLOUDY    75  55  49 SW16G29   29.48R
AURORA         CLOUDY    65  60  84 W13       29.50S
LANSING*       CLOUDY    75  58  55 SW17      29.49S
JOLIET*        CLOUDY    72  58  60 W12G17    29.49S
WAUKEGAN       CLOUDY    70  56  61 SW16G25   29.47R
DUPAGE AIRPORT CLOUDY    69  59  70 W13       29.48S
WHEELING       PTSUNNY   71  58  63 SW13G20   29.49R
KANKAKEE*      CLOUDY    74  53  47 SW18G24   29.50S
MORRIS*        CLOUDY    69  57  66 W14       29.48S
LEWIS AIRPORT* CLOUDY    71  59  64 W13       29.49S
NORTHERLY ISL    N/A     75  50  41 SW15        N/A
$$

WIZ051-052-058>065-066-070>072-262300-
SOUTHEAST WISCONSIN

CITY           SKY/WX    TMP DP  RH WIND       PRES   REMARKS
MILWAUKEE      CLOUDY    73  56  54 SW20G28   29.46R
KENOSHA*       CLOUDY    71  56  58 SW13      29.47R
RACINE*        CLOUDY    71  55  56 SW14G21   29.47S
WAUKESHA       PTSUNNY   66  54  63 SW15G25   29.47R
WEST BEND      CLOUDY    66  57  72 SW14G22   29.45R
$$

INZ001>003-010>013-019-020-262300-
NORTHWEST INDIANA

CITY           SKY/WX    TMP DP  RH WIND       PRES   REMARKS
GARY*          PTSUNNY   77  48  36 S12G23    29.49S
MICHIGAN CITY* NOT AVBL
RENSSELAER*    NOT AVBL
VALPARAISO     MOSUNNY   77  55  46 SW16G22   29.50S
$$

LMZ740>746-262300-
SOUTHERN LAKE MICHIGAN

STATION/POSITION TIME  SKY/WX   TEMP WIND        PRES    VSBY
                                AIR  DIR/SP/G
                 (UTC)          (F)  (DEG/KT/KT) (MB)    (MI)
HARRISON CRIB    2130            74  210/ 22/ 23   N/A
BURNHAM HARBOR   2200            75  180/ 11/ 19   N/A
CALUMET HARBOR   2136            75  200/ 12/ 15  997.8S
BURNS HARBOR     2140            74  230/ 10/ 20  999.0R
MICHIGAN CITY    2140            71  230/ 16/ 18   N/A
$$

ABBREVIATIONS USED IN REMARKS
   TC - TEMPERATURE IN CELSIUS
  WCI - WIND CHILL INDEX
   HX - HEAT INDEX
  VSB - VISIBILITY
$$




USA.gov is the U.S. government's official web portal to all federal, state and local government web resources and services.